Location: Holt
(52.2500°N, 2.2500°W)
Time: 11:35:31
(UTC+00:00)

Daily predictions for brighter satellites

Satellite Brightness Start Highest point End
(mag) Time Altitude Azimuth Time Altitude Azimuth Time Altitude Azimuth
NOSS 3-1 (C) 3.5 16:35:22 10° SSW 16:40:56 67° SE 16:47:28 10° NE
Cosmos 2233 Rocket 4.2 16:37:08 10° NNW 16:43:30 81° W 16:49:45 10° S
Meteor 1-27 4.3 16:38:12 10° S 16:43:55 80° E 16:49:44 10° NNE
Cosmos 2221 2.6 16:39:45 10° S 16:44:06 87° W 16:48:31 10° N
NOSS 3-1 (A) 3.8 16:39:20 10° SSW 16:44:43 49° ESE 16:50:57 10° NE
Cosmos 1943 Rocket 4.2 16:41:51 10° WNW 16:45:38 18° NNW 16:49:26 10° NNE
Cosmos 1624 Rocket 4.4 16:40:39 10° NNW 16:45:47 43° NE 16:50:50 10° SE
Cosmos 2056 Rocket 3.8 16:42:36 10° NNW 16:47:30 42° NE 16:52:24 10° SE
Cosmos 1666 Rocket 3.8 16:43:19 10° N 16:47:32 44° ENE 16:51:41 10° SSE
Elektron 3 4.4 16:44:35 10° WSW 16:47:38 47° NNW 16:50:33 10° NE
Cosmos 1980 Rocket 3.2 16:49:04 10° SSE 16:53:42 26° ESE 16:58:22 10° NE
COSMO-SKYMED 1 4.5 16:53:04 10° ENE 16:54:31 11° E 16:55:56 10° ESE
Cosmos 1356 Rocket 3.6 16:51:26 10° S 16:55:34 56° E 16:59:48 10° NNE
CENTAUR R/B 3.7 16:50:41 10° NW 16:57:21 37° N 17:04:52 10° ENE
Cosmos 2297 Rocket 3.7 16:52:32 10° NW 16:57:51 43° WSW 17:03:09 10° S
Okean O Rocket 2.2 16:53:51 10° S 16:58:11 62° WSW 17:02:32 10° NNW
SJ-7 4.5 16:54:34 10° SSE 16:58:50 85° ENE 17:03:06 10° NNW
Cosmos 1538 Rocket 4.1 16:53:36 10° SSW 16:58:55 88° WNW 17:04:19 10° NNE
Cosmos 2227 Rocket 3.6 16:53:41 10° NW 16:59:03 45° WSW 17:04:24 10° S
Cosmos 1862 3.3 17:00:57 10° N 17:04:54 57° ENE 17:08:51 10° SSE
CZ-4 R/B 2.7 17:02:47 10° ESE 17:05:42 19° ENE 17:08:34 10° NNE
Cosmos 2263 Rocket 2.5 17:04:18 10° NNW 17:09:37 42° NE 17:14:54 10° ESE
PSLV R/B 4.1 17:05:33 10° NNE 17:09:45 57° ESE 17:13:53 10° S
Cosmos 1238 Rocket 4.5 17:06:17 10° NNW 17:09:51 34° W 17:12:55 10° SSW
Cosmos 44 4.1 17:06:25 10° NNW 17:10:09 26° NNE 17:13:17 13° E
YAOGAN 6 3.8 17:09:05 10° ESE 17:11:40 20° ENE 17:14:16 10° NNE
Envisat 3.4 17:09:01 10° SE 17:13:45 41° ENE 17:18:31 10° N
Cosmos 1891 Rocket 4.5 17:09:18 10° N 17:15:41 77° ENE 17:21:52 10° SSE
BREEZE-M DEB (TANK) 4.5 17:12:24 10° SSW 17:17:06 20° SSE 17:19:49 10° ESE
Cosmos 1464 Rocket 3.9 17:10:58 10° N 17:17:09 78° E 17:23:17 10° SSE
IRS-1C Rocket 4.1 17:12:21 10° SSE 17:17:38 89° ENE 17:22:58 10° NNW
Cosmos 1470 Rocket 3.9 17:14:48 10° N 17:19:09 44° ENE 17:23:26 10° SE
YAOGAN 1 3.7 17:17:16 10° ESE 17:20:41 23° ENE 17:24:06 10° N
Lacrosse 4 Rocket 1.3 17:16:48 10° SW 17:20:52 86° NW 17:24:44 11° NE
ATLAS 3B R/B 3.5 17:16:36 10° NW 17:22:34 33° NNE 17:27:21 15° ENE
H-2A R/B 2.6 17:18:54 10° SSE 17:22:41 72° ENE 17:26:28 10° N
NOSS 2-3 (C) 4.0 17:18:57 10° SSW 17:23:20 57° SE 17:27:46 14° NE
Cosmos 1420 Rocket 4.3 17:20:33 10° NNW 17:25:30 42° NE 17:30:25 10° SE
USA 238 DEB 4.0 17:22:18 10° NW 17:29:12 51° NNE 17:36:05 11° ESE
USA 238 4.0 17:22:24 10° NW 17:29:17 51° NNE 17:36:08 11° ESE
Cosmos 1697 Rocket 2.7 17:24:06 10° SSW 17:29:44 76° ESE 17:35:24 10° NNE
Cosmos 1656 3.9 17:24:34 10° SW 17:30:05 71° WNW 17:35:34 10° NNE
NOSS 3-2 (A) 4.2 17:24:23 10° NW 17:31:15 51° NNE 17:38:34 12° ESE
Cosmos 2369 3.7 17:26:13 10° SSW 17:31:53 82° ESE 17:37:39 10° NNE
APEX 3.1 17:30:14 10° S 17:33:10 37° ESE 17:34:17 26° ENE
AQUARIUS 4.3 17:30:43 10° SSE 17:35:13 82° WSW 17:39:46 10° NNW
Cosmos 1452 Rocket 3.9 17:30:43 10° NNW 17:35:45 42° NE 17:40:46 10° SE
Feng Yun 1-1 Rocket 4.5 17:32:08 10° S 17:37:38 72° WSW 17:43:04 10° NNW
Cosmos 1371 Rocket 4.2 17:33:24 10° NNW 17:38:37 76° WSW 17:43:47 10° SSE
Cosmos 1869 4.4 17:35:28 10° SSW 17:39:14 45° WNW 17:43:03 10° N
CZ-4B R/B 4.1 17:37:17 10° NNW 17:39:45 19° WNW 17:42:15 10° WSW
Timation 1 Rocket 4.3 17:36:55 10° NNW 17:42:53 65° NE 17:48:51 10° SE
SKYMED 2 4.4 17:40:40 17° NE 17:43:13 30° E 17:47:02 10° SSE
SMAP 3.6 17:39:55 10° S 17:44:32 64° WSW 17:49:12 10° NNW
Cosmos 1400 Rocket 4.4 17:42:51 10° SE 17:44:48 18° ESE 17:44:48 18° ESE
Cosmos 2278 3.7 17:42:58 10° SSW 17:48:40 83° ESE 17:53:57 12° NNE
Cosmos 1844 Rocket 3.7 17:45:37 10° NNW 17:50:19 27° NE 17:51:57 23° ENE
Cosmos 2360 4.2 17:45:51 10° SSW 17:51:33 74° ESE 17:56:28 14° NE
Cosmos 1633 4.5 17:49:53 10° NNW 17:53:11 33° W 17:56:28 10° SSW
Cosmos 2112 Rocket 3.9 17:50:38 10° SSW 17:55:51 87° ESE 18:00:50 12° NNE
Ariane Rocket 3.8 17:55:50 26° E 17:56:54 28° ENE 18:01:11 10° N
FengYun 1-2 T 4.1 17:53:19 10° SSE 17:58:47 72° ENE 18:04:16 10° NNW
Cosmos 1680 Rocket 3.6 17:55:23 10° SSW 18:00:37 77° WNW 18:05:45 11° NNE
ERBS 2.9 17:57:26 10° W 18:00:38 45° NNW 18:01:35 34° NNE
Cosmos 2278 Rocket 3.9 17:59:19 10° NNW 18:02:44 16° NNE 18:03:29 15° NNE
Cosmos 1151 Rocket 3.0 18:00:24 10° S 18:04:47 90° W 18:09:13 10° N
Cosmos 44 Rocket 4.4 18:04:38 10° NNW 18:08:36 25° NNE 18:09:10 25° NE
CSL-04 Debris 4.1 18:03:36 10° SSE 18:09:01 64° ENE 18:14:28 10° N
Cosmos 2344 4.4 18:03:37 10° W 18:11:01 47° NNW 18:17:29 19° NE
USA 215 3.4 18:07:26 27° ENE 18:11:09 61° N 18:17:34 10° WNW
NOAA 11 4.3 18:07:08 10° SE 18:12:20 50° ENE 18:17:36 10° N
CSL-04 Rocket 3.5 18:11:50 10° SSE 18:17:07 72° ENE 18:22:24 10° NNW
Cosmos 1606 2.6 18:14:04 10° S 18:17:47 61° E 18:18:12 56° ENE
SeaSat 1 2.5 18:14:00 10° SSE 18:18:56 81° WSW 18:23:55 10° NNW
GEOS 3 Rocket 4.0 18:17:44 36° E 18:19:03 42° SE 18:24:02 10° SSW
NOSS 3-2 (C) 4.0 18:12:13 10° NW 18:19:15 58° NNE 18:23:25 29° E
Okean-O 3.7 18:15:12 10° S 18:19:29 47° W 18:23:48 10° NNW
Cosmos 1328 Rocket 4.2 18:19:45 10° SSW 18:24:05 56° WNW 18:28:25 10° N
SWAS 4.3 18:20:35 10° NNW 18:24:57 75° ENE 18:26:11 45° SE
COSMOS 2455 3.8 18:20:11 10° SSE 18:24:34 28° ESE 18:24:34 28° ESE
NOSS 2-3 (E) 4.2 18:21:48 10° WSW 18:26:22 62° NW 18:28:59 29° NE
Cosmos 1933 Rocket 4.1 18:22:10 10° NNW 18:26:27 59° W 18:30:44 10° S
BREEZE-M DEB (TANK) 2.5 18:21:05 10° W 18:27:21 56° SSW 18:27:54 48° SSE
Cosmos 2369 Rocket 4.4 18:26:27 10° NNW 18:28:04 11° N 18:29:41 10° NNE
USA 116 4.4 18:26:50 35° NE 18:28:41 56° E 18:33:50 10° S
USA 229 DEB 4.4 18:24:18 10° W 18:30:44 46° NNW 18:34:52 23° NE
USA 229 4.4 18:24:23 10° W 18:30:50 46° NNW 18:34:58 23° NE
Cosmos 1844 4.3 18:25:44 10° NNW 18:31:06 37° NE 18:31:19 37° NE
COSMO-SKYMED 1 2.4 18:29:13 29° NNE 18:31:24 82° ESE 18:35:45 10° SSW
Cosmos 2360 Rocket 4.2 18:27:40 10° SSE 18:28:08 12° SSE 18:28:08 12° SSE
Cosmos 1943 Rocket 4.4 18:30:09 10° NNW 18:31:55 11° N 18:33:36 10° NNE
Cosmos 1515 Rocket 3.7 18:27:45 10° SSW 18:32:07 71° WNW 18:35:53 14° N
NOSS 3-1 (C) 4.3 18:26:29 10° W 18:32:11 45° NNW 18:36:01 23° NE
Cosmos 1634 Rocket 3.9 18:27:00 10° N 18:33:15 90° WSW 18:39:25 10° S
Meteor 1-26 Rocket 4.2 18:28:34 10° S 18:34:28 66° E 18:40:05 11° NNE
NOSS 3-1 (A) 4.0 18:29:53 10° WSW 18:35:38 53° NNW 18:39:21 26° NE
NOSS 2-3 (D) 4.3 18:31:42 10° WSW 18:36:15 57° NW 18:38:27 33° NNE
Cosmos 2228 Rocket 3.0 18:32:37 10° S 18:37:07 87° E 18:39:24 30° NNE
Cosmos 1980 Rocket 2.5 18:31:36 10° SW 18:37:16 67° NW 18:40:55 23° NNE
Cosmos 1939 Rocket 3.6 18:41:03 41° N 18:41:03 41° N 18:43:51 10° N
Meteor 1-20 Rocket 4.4 18:34:20 10° NNW 18:40:11 74° W 18:45:56 10° S
CZ-4 R/B 2.0 18:36:23 10° S 18:40:25 57° W 18:44:22 10° NNW
SL-16 R/B 2.3 18:35:05 10° S 18:40:33 52° ESE 18:40:55 51° E
YAOGAN 6 3.9 18:41:40 10° SSW 18:44:57 39° W 18:48:18 10° NNW
Cosmos 2142 Rocket 4.4 18:38:48 10° N 18:45:15 87° E 18:51:36 10° S
Cosmos 2322 Rocket 2.4 18:40:11 10° S 18:45:07 48° SE 18:45:07 48° SE
Cosmos 2279 Rocket 3.8 18:41:27 10° N 18:47:42 76° ENE 18:53:56 10° SSE
CENTAUR R/B 3.1 18:41:51 10° NW 18:49:27 64° NE 18:52:17 43° E
Cosmos 1933 4.0 18:45:36 10° SSW 18:49:34 53° WNW 18:51:29 28° N
H-2A R/B 3.8 18:52:37 20° NNE 18:52:37 20° NNE 18:54:25 10° N
Cosmos 44 2.9 18:47:27 10° NW 18:51:45 82° W 18:51:45 82° W
Cosmos 2263 Rocket 3.2 18:48:21 10° NW 18:53:36 44° WSW 18:58:50 10° S
YAOGAN 1 3.3 18:52:16 10° S 18:56:30 52° W 19:00:45 10° NNW
Cosmos 1110 Rocket 4.1 18:54:31 10° NNW 18:59:01 60° NNE 18:59:01 60° NNE
Lacrosse 4 Rocket 3.5 18:57:10 10° W 19:00:08 19° NNW 19:01:03 18° NNW
SL-8 R/B 4.4 18:57:41 10° WSW 19:01:42 44° S 19:01:42 44° S
Cosmos 1331 Rocket 4.3 19:00:01 10° NNW 19:04:09 53° N 19:04:09 53° N
Geosat 4.1 19:12:57 67° NNW 19:13:23 71° NW 19:18:23 10° SW
Cosmos 1697 Rocket 4.3 19:09:25 10° W 19:14:18 29° NW 19:17:18 18° N
ATLAS 3B R/B 2.6 19:07:46 10° NW 19:14:25 64° NE 19:14:36 64° NE
ATLAS 2AS CENTAUR R/B 4.0 19:10:41 10° S 19:14:57 29° SSE 19:14:57 29° SSE
Cosmos 1869 Rocket 4.5 19:14:05 10° NNW 19:18:15 46° W 19:18:41 44° WSW
USA 238 DEB 4.1 19:13:25 10° NW 19:20:28 64° SW 19:23:35 36° SSE
USA 238 4.1 19:13:31 10° NW 19:20:34 64° SW 19:23:38 36° SSE
Cosmos 371 Rocket 4.3 19:16:46 10° NNW 19:19:50 39° NNW 19:19:50 39° NNW
Cosmos 1400 Rocket 4.5 19:18:05 10° SSW 19:20:29 31° SW 19:20:29 31° SW
NOSS 3-2 (A) 4.2 19:15:18 10° NW 19:22:37 69° SW 19:26:01 38° SSE
Cosmos 2180 Rocket 4.5 19:16:45 10° NNW 19:22:55 79° W 19:25:47 34° S
Cosmos 1844 Rocket 3.1 19:29:16 10° NNW 19:33:39 56° NW 19:33:39 56° NW
Ariane Rocket 3.6 19:36:03 53° W 19:36:03 53° W 19:40:37 10° NNW
Cosmos 2278 Rocket 3.9 19:43:00 10° NNW 19:45:20 23° N 19:45:20 23° N
USA 215 3.3 19:54:48 72° WNW 19:54:48 72° WNW 20:00:37 10° WNW
NOSS 3-2 (C) 4.4 20:03:12 10° NW 20:10:27 57° SW 20:10:54 56° SW
COSMOS 2455 4.2 20:04:44 10° SW 20:07:46 31° SW 20:07:46 31° SW
Cosmos 1980 Rocket 4.3 20:18:09 10° W 20:22:23 21° NNW 20:22:42 21° NNW
SL-16 R/B 3.9 20:19:36 10° WSW 20:22:49 29° W 20:22:49 29° W
Cosmos 2322 Rocket 4.1 20:24:31 10° WSW 20:26:59 24° W 20:26:59 24° W
CENTAUR R/B 3.7 20:32:41 10° NW 20:39:30 51° WSW 20:39:30 51° WSW
ATLAS 3B R/B 4.4 20:58:42 10° NW 21:01:52 27° WNW 21:01:52 27° WNW
